Location: Melita
(38.4566°N, 122.6369°W)
Time: 05:35:50
(UTC+00:00)

NOSS 3-4 (C) - Pass Details

Date: 24 January 2020
Orbit: 905 x 1307 km, 63.4° (Epoch: 21 February)

Event Time Altitude Azimuth Distance (km) Brightness Sun altitude
Exits shadow 13:45:32 20° 236° (SW) 1,954 4.7 -18.9°
Maximum altitude 13:49:34 56° 308° (NW) 1,097 3.4 -18.1°
Drops below altitude 10° 13:55:44 10° 26° (NNE) 2,720 6.0 -16.9°
Sets 13:58:28 0° 31° (NNE) 3,721 6.8 -16.4°
